#timestamp,LO_Frequency,Hit,StdDev 
1562144415.4,286046987.8,N
1562144435.2,286046986.5,Y
1562144455.0,286046998.8,P
1562144455.9,286046998.8,N
1562144475.8,286046999.1,N
1562144495.6,286046998.3,N
1562144515.4,286047000.3,N
1562144535.3,286046998.5,N
1562144555.1,286046996.8,N
1562144575.9,286046999.7,N
1562144595.7,286047003.4,N
1562144615.5,286047006.1,N
1562144635.4,286047007.7,N
1562144655.2,286047010.0,N
1562144675.6,286047011.2,N
1562144695.4,286047015.1,N
1562144715.2,286047018.2,N
1562144735.1,286047023.1,Y
1562144736.0,286047023.1,P
1562144755.8,286047023.6,N
1562144775.6,286047026.7,N
1562144795.5,286047025.7,N
1562144815.3,286047027.5,Y
1562144835.2,286047008.9,P
1562144855.9,286047006.5,N
1562144875.7,286047009.6,N
1562144895.6,286047011.1,N
1562144915.4,286047007.7,N
1562144935.2,286047003.0,N
1562144955.1,286047006.2,N
1562144956.0,286047006.2,N
1562144975.8,286047011.8,N
1562144995.7,286047012.1,N
1562145015.5,286047012.3,N
1562145035.3,286047013.5,Y
1562145055.2,286047005.2,P
1562145075.0,286047007.4,P
1562145075.9,286047007.4,P
1562145095.8,286047006.8,Y
1562145115.6,286047002.3,P
1562145135.4,286047003.7,N
1562145155.3,286047005.6,N
1562145175.1,286047005.4,N
1562145195.8,286047005.8,Y
1562145215.7,286046999.4,P
1562145235.5,286047002.2,N
1562145255.4,286047002.0,N
1562145275.2,286047001.0,N
1562145295.0,286047000.2,N
1562145295.9,286047000.2,N
1562145315.8,286046998.8,N
1562145335.6,286047002.0,N
1562145355.5,286047004.8,N
1562145375.3,286047004.7,N
1562145395.1,286047006.5,Y
1562145415.9,286047002.1,P
1562145435.7,286047001.0,P
1562145455.5,286046999.8,N
1562145475.4,286046999.8,N
1562145495.2,286047002.5,N
1562145515.1,286046996.9,N
1562145516.0,286046996.9,N
1562145535.8,286046999.1,N
1562145555.6,286046997.1,N
1562145575.5,286046999.1,N
1562145595.3,286046992.7,Y
1562145615.1,286046991.8,P
1562145635.9,286046996.3,N
1562145655.7,286046999.0,N
1562145675.6,286046999.7,N
1562145695.4,286046999.0,N
1562145715.3,286047001.0,N
1562145735.1,286047002.7,N
1562145736.0,286047002.7,N
1562145755.8,286047002.4,N
1562145775.7,286047000.8,N
1562145795.5,286047000.3,N
1562145815.4,286046998.5,N
1562145835.2,286047001.7,N
1562145855.0,286047002.3,N
1562145855.9,286047002.3,N
1562145875.8,286046999.7,N
1562145895.6,286047000.7,N
1562145915.4,286046997.2,N
1562145935.3,286046995.0,N
1562145955.1,286046995.9,N
1562145975.9,286046995.2,N
1562145995.7,286046995.1,N
1562146015.5,286046997.3,N
1562146035.4,286046997.4,N
1562146055.2,286046992.0,N
1562146075.0,286046985.3,Y
1562146076.0,286046985.3,P
1562146095.8,286046985.9,N
1562146115.6,286046991.0,N
1562146135.5,286046995.5,N
1562146155.3,286046997.6,N
1562146175.1,286046997.2,N
1562146195.9,286046999.6,N
1562146215.7,286046992.2,N
1562146235.6,286046996.0,N
1562146255.4,286046994.3,N
1562146275.3,286046994.7,N
1562146295.1,286046992.9,N
1562146296.0,286046992.9,N
1562146315.8,286046992.2,N
1562146335.7,286046990.4,N
1562146355.5,286046982.3,Y
1562146375.3,286046984.9,P
1562146395.2,286046983.0,P
1562146415.0,286046979.0,P
1562146415.9,286046979.0,Y
1562146435.8,286046989.1,P
1562146455.6,286046986.7,P
1562146475.4,286046983.0,P
1562146495.3,286046981.5,Y
1562146515.1,286046991.7,P
1562146535.9,286046989.2,P
1562146555.7,286046988.2,P
1562146575.5,286046985.4,Y
1562146595.4,286046999.5,P
1562146615.2,286046996.2,N
1562146635.0,286046990.3,N
1562146635.9,286046990.3,N
1562146655.8,286046991.8,N
1562146675.6,286046992.0,N
1562146695.5,286046993.5,N
1562146715.3,286046994.9,N
1562146735.1,286046995.2,N
1562146755.9,286046994.2,N
1562146775.7,286046992.6,N
1562146795.5,286046993.1,N
1562146815.4,286046990.7,Y
1562146835.2,286046993.7,P
1562146855.1,286046989.6,P
1562146856.0,286046989.6,P
1562146875.8,286046982.9,Y
1562146895.6,286046992.7,P
1562146915.5,286046991.0,P
1562146935.3,286046987.6,P
1562146955.2,286046987.5,Y
1562146975.9,286046988.5,P
1562146995.7,286046984.7,P
1562147015.6,286046981.5,P
1562147035.4,286046981.9,Y
1562147055.3,286046994.7,P
1562147075.1,286046987.0,P
1562147076.0,286046987.0,P
1562147095.8,286046986.0,Y
1562147115.7,286046997.7,P
1562147135.5,286046999.1,N
1562147155.3,286046999.6,N
1562147175.2,286047000.5,N
1562147195.0,286047001.8,N
1562147195.9,286047001.8,N
1562147215.8,286047007.5,N
1562147235.6,286047004.9,N
1562147255.4,286046997.7,N
1562147275.3,286046990.3,N
1562147295.1,286046991.0,N
1562147315.8,286046996.3,N
1562147335.7,286046994.1,N
1562147355.5,286046989.2,N
1562147375.4,286046986.6,N
1562147395.2,286046982.6,N
1562147415.0,286046981.8,N
1562147415.9,286046981.8,N
1562147435.8,286046980.4,N
1562147455.6,286046980.2,N
1562147475.4,286046979.1,N
1562147495.3,286046977.5,N
1562147515.1,286046975.1,N
1562147535.9,286046971.5,Y
1562147555.7,286046980.7,P
1562147575.5,286046984.0,P
1562147595.4,286046987.4,N
1562147615.2,286046989.2,N
1562147635.0,286046990.7,N
1562147636.0,286046990.7,N
1562147655.8,286046994.8,N
1562147675.6,286046995.6,N
1562147695.5,286046994.4,N
1562147715.3,286046994.3,N
1562147735.1,286046997.3,N
1562147755.9,286046998.7,N
1562147775.7,286046991.8,N
1562147795.5,286046990.0,N
1562147815.4,286046988.8,N
1562147835.2,286046995.0,N
1562147855.1,286047001.0,N
1562147856.0,286047001.0,N
1562147875.8,286047001.4,N
1562147895.6,286047005.7,N
1562147915.5,286047004.4,N
1562147935.3,286047004.7,N
1562147955.2,286047004.6,N
1562147975.9,286047011.9,N
1562147995.7,286047005.4,N
